Regional Weather Roundup
Issued by NWS

Home | Current Version | Previous Version | Graphics & Text | Print | Product List | Glossary On
Versions: 1 2 3 4 5 6 7 8 9 10 11 12 13 14 15 16 17 18 19 20 21 22 23 24 25 26 27 28 29 30 31 32 33 34 35 36 37 38 39 40 41 42 43 44 45 46 47 48 49 50
000
ASUS45 KTFX 231304
RWRMT
MONTANA HOURLY WEATHER ROUNDUP
NATIONAL WEATHER SERVICE GREAT FALLS MT
704 AM MDT THU OCT 23 2014

NOTE: "FAIR" INDICATES FEW OR NO CLOUDS BELOW 12000 FEET WITH NO
SIGNIFICANT WEATHER AND/OR OBSTRUCTIONS TO VISIBILITY.

* THESE STATIONS ARE NOT UNDER NWS QUALITY CONTROL. THEY DO NOT
   REPORT WEATHER SUCH AS PRECIPITATION OR FOG.

MTZ001>007-043-231400-
WEST OF THE DIVIDE
CITY           SKY/WX    TMP DP  RH WIND       PRES   REMARKS
KALISPELL      CLOUDY    54  43  67 S12       29.81S
MISSOULA       CLOUDY    48  39  71 SE5       29.88S
BUTTE          CLOUDY    43  30  60 CALM      29.98S
MULLAN PASS    RAIN      37  37 100 SW9G17    29.87R VSB 1/2  WCI  30
* ESSEX        N/A       44  43  96 N/A        N/A
* LINCOLN      N/A       49  33  54 W6         N/A
* POLSON       N/A       49  40  71 S2         N/A
* RONAN APT    CLOUDY    55  39  55 SE7        N/A
* SEELEY LAKE  N/A       40  37  89 NE1        N/A
* THOMP F APT  CLOUDY    38  23  55 NE5G11     N/A   WCI  34
$$

MTZ008-052>055-231400-
SOUTHWEST MONTANA
CITY           SKY/WX    TMP DP  RH WIND       PRES   REMARKS
BOZEMAN        MOCLDY    41  34  76 VRB5      29.95F
DILLON         CLOUDY    41  28  60 SW6       29.99S
W YELLOWSTONE  CLOUDY    30  27  89 CALM      30.13F
* THREE FORKS  MOCLDY    54  36  51 SW6        N/A
* BOULDER HILL N/A       42  25  51 S14        N/A
* MONIDA PASS  N/A       36  24  62 SE14G20    N/A   WCI  27
* RAYNOLDS PAS N/A       41  22  47 SE19G27    N/A
* WHITEHALL    N/A       48  28  46 W5G10      N/A
* WISE RIVER   N/A       35  32  89 SW3        N/A
$$

MTZ009>010-012-014-046-048-049-054-231400-
EAST SLOPES AND CENTRAL MONTANA
CITY           SKY/WX    TMP DP  RH WIND       PRES   REMARKS
CUT BANK       CLOUDY    50  36  59 SW14      29.74S
GREAT FALLS    CLOUDY    50  34  54 S13       29.80S
HELENA         CLOUDY    55  28  35 SW10G20   29.87S
MALMSTROM AFB  CLOUDY    52  32  47 SW18G24   29.82S
* CONRAD       CLOUDY    46  39  77 S6         N/A
* DEARBORN     N/A       58  32  37 S14G21     N/A
* EAST GLACIER N/A       48  36  63 NW26G37    N/A
* MONARCH      N/A       48  20  33 S10G20     N/A
* PENDROY      N/A       50  35  57 S9         N/A
* ROGERS PASS  N/A       47  31  54 E11G20     N/A
* SAINT MARY   N/A       49  35  59 S12G26     N/A
* SWEET GRASS  N/A       52  35  52 SW28G33    N/A
$$

MTZ011-013-016-021-035-040-045-047-050-051-231400-
NORTH CENTRAL MONTANA
CITY           SKY/WX    TMP DP  RH WIND       PRES   REMARKS
HAVRE          CLOUDY    54  34  47 SW16      29.73R
LEWISTOWN      CLOUDY    55  28  35 SW17      29.84F
* CHESTER      N/A       52  35  52 SW8G14     N/A
* DENTON       N/A       53  31  43 S7         N/A
* JUDITH GAP   N/A       51  30  45 SW14G21    N/A
* LOMA         N/A       58  32  37 SW21G29    N/A
$$

MTZ017>020-022>027-061-062-231400-
NORTHEAST MONTANA
CITY           SKY/WX    TMP DP  RH WIND       PRES   REMARKS
GLASGOW        MOCLDY    37  30  76 E10       29.79F WCI  30
GLENDIVE       CLEAR     34  27  76 S9        29.88F WCI  27
JORDAN         PTCLDY    30  25  82 E5        29.82F WCI  25
SIDNEY         CLEAR     32  28  85 S7        29.87S WCI  25
WOLF POINT     PTCLDY    28  25  89 NE3       29.82F
* BEAVER HILL  N/A       41  27  58 S13        N/A
* CIRCLE       N/A       41  30  65 N/A        N/A
* LINDSAY DVD  N/A       44  28  53 SW13       N/A
* NAVAJO       N/A       42  30  63 SW11       N/A
$$

MTZ028>042-056>058-231400-
SOUTHCENTRAL AND SOUTHEAST MONTANA
CITY           SKY/WX    TMP DP  RH WIND       PRES   REMARKS
BAKER          CLEAR     39  27  62 W3        29.91S
BILLINGS       CLOUDY    52  23  32 SW7       29.90S
LIVINGSTON     PTCLDY    54  28  37 SW37G55   29.90F
MILES CITY     PTCLDY    37  27  67 SE8       29.89S WCI  31
* LAUREL APT   CLOUDY    54  19  25 SW9        N/A
* ROUNDUP APT  CLOUDY    45  21  38 S7         N/A
* ALZADA       N/A       36  26  67 E4         N/A
* HYSHAM       N/A       48  21  34 W4         N/A
* LAME DEER    N/A       47  20  34 SW5        N/A
* REED POINT   N/A       34  29  82 N/A        N/A
* ROSCOE HILL  N/A       54  20  26 SW10G23    N/A
$$

REGIONAL REPORTS...DAKOTAS
CITY           SKY/WX    TMP DP  RH WIND       PRES   REMARKS
WILLISTON      CLEAR     36  30  79 S3        29.84F
DICKINSON      CLEAR     36  28  73 W8        29.87S WCI  30
BEACH          N/A       37  28  70 SW10      29.89S WCI  30
CROSBY         N/A       37  36  96 S16       29.81F WCI  28
TIOGA          CLEAR     37  36  96 SW6       29.87S WCI  32
BISMARCK       CLEAR     32  28  85 E5        29.91F WCI  27
GRAND FORKS    FAIR      41  37  86 SW3       29.84S
FARGO          CLEAR     43  39  86 S8        29.91S
BUFFALO SD     CLEAR     41  27  58 W8        29.87S
RAPID CITY     PTCLDY    39  25  57 W8        29.98S WCI  33
$$

REGIONAL REPORTS...WYOMING/IDAHO/WASHINGTON
CITY           SKY/WX    TMP DP  RH WIND       PRES   REMARKS
GILLETTE       MOCLDY    45  19  35 S10       29.95F
SHERIDAN       CLOUDY    36  25  64 CALM      29.93S
CODY           CLOUDY    54  25  33 SW10      30.01S
YELLOWSTONE LA CLOUDY    30  27  89 CALM      30.19F
SALMON         CLOUDY   N/A N/A N/A N/A        N/A
MULLAN PASS    RAIN      37  37 100 SW9G17    29.87S VSB 1/2  WCI  30
SAND POINT     CLOUDY    50  50 100 S5        29.78S
SPOKANE        CLOUDY    52  48  86 S13       29.77F

$$




USA.gov is the U.S. government's official web portal to all federal, state and local government web resources and services.